FW6209 Weather Reports


Display with metric or nautical units.
time (UTC)temp
F
wind
direction
speed
MPH
gust
MPH
rain 1hr
in
rain 24hr
in
rain mn
in
humidity
%
barometer
mb
20260905143511 72 85 0.0 0.0 0.00 0.00 0.00 40 1013.1
20260905143011 71 85 0.0 0.0 0.00 0.00 0.00 40 1013.0
20260905142734 71 85 0.0 0.0 0.00 0.00 0.00 43 1013.0
20260905141958 70 85 0.0 0.0 0.00 0.00 0.00 46 1012.9
20260905141452 70 85 0.0 0.0 0.00 0.00 0.00 46 1012.9
20260905140946 69 85 0.0 0.0 0.00 0.00 0.00 47 1012.8
20260905140440 68 85 0.0 0.0 0.00 0.00 0.00 49 1012.8
20260905135934 67 85 0.0 0.0 0.00 0.00 0.00 50 1012.6
20260905135428 66 85 0.0 0.0 0.00 0.00 0.00 51 1012.6
20260905134922 66 85 0.0 0.0 0.00 0.00 0.00 52 1012.6
20260905134416 66 85 0.0 0.0 0.00 0.00 0.00 51 1012.6
20260905134138 66 48 0.0 0.0 0.00 0.00 0.00 51 1012.6
20260905133404 66 47 0.0 0.0 0.00 0.00 0.00 51 1012.5
20260905132858 66 0 0.0 0.0 0.00 0.00 0.00 52 1012.3
20260905132352 66 0 0.0 0.0 0.00 0.00 0.00 51 1012.2
20260905131847 66 0 0.0 0.0 0.00 0.00 0.00 52 1012.3
20260905131340 66 0 0.0 0.0 0.00 0.00 0.00 52 1012.4
20260905130835 66 307 0.0 0.0 0.00 0.00 0.00 53 1012.4
20260905130328 65 307 0.0 0.0 0.00 0.00 0.00 56 1012.3
20260905125822 65 307 0.0 0.0 0.00 0.00 0.00 61 1012.4
20260905125317 65 302 0.0 0.0 0.00 0.00 0.00 61 1012.4
20260905124811 65 298 0.0 0.0 0.00 0.00 0.00 62 1012.4
20260905124304 65 284 0.0 0.0 0.00 0.00 0.00 63 1012.5
20260905123759 65 284 0.0 0.0 0.00 0.00 0.00 62 1012.5
20260905123253 64 284 0.0 0.0 0.00 0.00 0.00 62 1012.4
20260905122746 64 243 0.0 0.0 0.00 0.00 0.00 63 1012.5
20260905122503 64 243 0.0 0.0 0.00 0.00 0.00 62 1012.4
20260905121734 64 243 0.0 0.0 0.00 0.00 0.00 61 1012.5
20260905121229 64 243 0.0 0.0 0.00 0.00 0.00 60 1012.4
20260905120946 65 243 0.0 0.0 0.00 0.00 0.00 58 1012.4
20260905120219 65 243 0.0 0.0 0.00 0.00 0.00 57 1012.3
20260905115710 65 243 0.0 0.0 0.00 0.00 0.00 56 1012.2
20260905115204 65 243 0.0 0.0 0.00 0.00 0.00 56 1012.3
20260905114919 65 243 0.0 0.0 0.00 0.00 0.00 56 1012.3
20260905114152 65 243 0.0 0.0 0.00 0.00 0.00 57 1012.3
20260905113647 65 243 0.0 0.0 0.00 0.00 0.00 58 1012.4
20260905113140 65 243 0.0 0.0 0.00 0.00 0.00 58 1012.4
20260905112634 65 243 0.0 0.0 0.00 0.00 0.00 58 1012.4
20260905112128 65 243 0.0 0.0 0.00 0.00 0.00 61 1012.4
20260905111622 65 243 0.0 0.0 0.00 0.00 0.00 63 1012.4
20260905111116 64 243 0.0 0.0 0.00 0.00 0.00 63 1012.5
20260905110610 64 243 0.0 0.0 0.00 0.00 0.00 64 1012.5
20260905110104 64 243 0.0 0.0 0.00 0.00 0.00 66 1012.5
20260905105558 64 243 0.0 0.0 0.00 0.00 0.00 70 1012.5
20260905105052 63 243 0.0 0.0 0.00 0.00 0.00 70 1012.5
20260905104817 63 243 0.0 0.0 0.00 0.00 0.00 72 1012.4
20260905104040 63 243 0.0 0.0 0.00 0.00 0.00 78 1012.5
20260905103802 63 243 0.0 0.0 0.00 0.00 0.00 78 1012.6
20260905103254 63 243 0.0 0.0 0.00 0.00 0.00 79 1012.5
20260905102522 63 243 0.0 0.0 0.00 0.00 0.00 78 1012.5
20260905102016 63 180 0.0 0.0 0.00 0.00 0.00 78 1012.6
20260905101510 63 180 0.0 0.0 0.00 0.00 0.00 73 1012.5
20260905101005 63 180 0.0 0.0 0.00 0.00 0.00 73 1012.5
20260905100724 64 180 0.0 0.0 0.00 0.00 0.00 71 1012.5
20260905095952 64 180 0.0 0.0 0.00 0.00 0.00 69 1012.5
20260905095446 64 180 0.0 0.0 0.00 0.00 0.00 67 1012.5
20260905094940 64 180 0.0 0.0 0.00 0.00 0.00 67 1012.3
20260905094434 64 180 0.0 0.0 0.00 0.00 0.00 67 1012.4
20260905094157 64 180 0.0 0.0 0.00 0.00 0.00 67 1012.4
20260905093423 64 180 0.0 0.0 0.00 0.00 0.00 69 1012.4
20260905092916 65 180 0.0 0.0 0.00 0.00 0.00 69 1012.4
20260905092410 65 180 0.0 0.0 0.00 0.00 0.00 69 1012.5
20260905091905 65 180 0.0 0.0 0.00 0.00 0.00 69 1012.5
20260905091358 65 180 0.0 0.0 0.00 0.00 0.00 66 1012.5
20260905090852 65 180 0.0 0.0 0.00 0.00 0.00 66 1012.5
20260905090346 65 180 0.0 0.0 0.00 0.00 0.00 66 1012.5
20260905085840 65 180 0.0 0.0 0.00 0.00 0.00 67 1012.7
20260905085334 65 180 0.0 0.0 0.00 0.00 0.00 68 1012.7
20260905084828 64 180 0.0 0.0 0.00 0.00 0.00 69 1012.7
20260905084324 64 180 0.0 0.0 0.00 0.00 0.00 70 1012.8
20260905083817 64 180 0.0 0.0 0.00 0.00 0.00 73 1012.9
20260905083310 64 180 0.0 0.0 0.00 0.00 0.00 73 1012.9
20260905082804 63 180 0.0 0.0 0.00 0.00 0.00 74 1012.9
20260905082258 63 180 0.0 0.0 0.00 0.00 0.00 77 1012.9
20260905081752 63 180 0.0 0.0 0.00 0.00 0.00 79 1013.0
20260905081246 62 180 0.0 0.0 0.00 0.00 0.00 80 1013.1
20260905080741 62 172 0.0 0.0 0.00 0.00 0.00 83 1013.2
20260905080234 62 172 0.0 0.0 0.00 0.00 0.00 84 1013.2
20260905075728 62 173 0.0 0.0 0.00 0.00 0.00 84 1013.2
20260905075222 62 117 0.0 0.0 0.00 0.00 0.00 82 1013.3
20260905074716 62 176 0.0 0.0 0.00 0.00 0.00 83 1013.2
20260905074210 63 176 0.0 0.0 0.00 0.00 0.00 83 1013.3
20260905073704 63 176 0.0 0.0 0.00 0.00 0.00 83 1013.3
20260905073158 63 176 0.0 0.0 0.00 0.00 0.00 84 1013.3
20260905072652 63 180 0.0 0.0 0.00 0.00 0.00 84 1013.3
20260905072146 63 182 0.0 0.0 0.00 0.00 0.00 84 1013.3
20260905071639 63 173 0.0 0.0 0.00 0.00 0.00 84 1013.2
20260905071132 63 171 0.0 0.0 0.00 0.00 0.00 84 1013.1
20260905070626 62 180 0.0 0.0 0.00 0.00 0.00 85 1013.1
20260905070120 62 182 0.0 0.0 0.00 0.00 0.00 84 1013.2
20260905065613 62 194 0.0 0.0 0.00 0.00 0.00 84 1013.2
20260905065107 62 209 0.0 0.0 0.00 0.00 0.00 84 1013.2
20260905064602 62 189 0.0 0.0 0.00 0.00 0.00 84 1013.2
20260905064055 62 174 0.0 0.0 0.00 0.00 0.00 84 1013.2
20260905063809 62 178 0.0 0.0 0.00 0.00 0.00 84 1013.2
20260905063043 62 184 0.0 0.0 0.00 0.00 0.00 84 1013.1
20260905062537 62 0 0.0 0.0 0.00 0.00 0.00 83 1013.1
20260905062031 62 0 0.0 0.0 0.00 0.00 0.00 83 1013.1
20260905061525 62 0 0.0 0.0 0.00 0.00 0.00 83 1013.0
20260905061019 62 0 0.0 0.0 0.00 0.00 0.00 83 1013.0
20260905060513 63 335 0.0 0.0 0.00 0.00 0.00 81 1013.0
20260905060235 63 335 0.0 0.0 0.00 0.00 0.00 81 1012.9
20260905055502 63 215 0.0 0.0 0.00 0.00 0.00 79 1012.9
20260905054955 63 215 0.0 0.0 0.00 0.00 0.00 78 1012.8
20260905054449 63 215 0.0 0.0 0.00 0.00 0.00 77 1012.8
20260905053943 63 215 0.0 0.0 0.00 0.00 0.00 76 1012.8
20260905053438 64 215 0.0 0.0 0.00 0.00 0.00 76 1012.8
20260905052932 64 215 0.0 0.0 0.00 0.00 0.00 76 1012.9
20260905052654 64 215 0.0 0.0 0.00 0.00 0.00 76 1012.9
20260905052146 64 215 0.0 0.0 0.00 0.00 0.00 75 1012.9
20260905051413 64 215 0.0 0.0 0.00 0.00 0.00 75 1012.8
20260905050907 64 215 0.0 0.0 0.00 0.00 0.00 75 1012.7
20260905050402 64 215 0.0 0.0 0.00 0.00 0.00 76 1012.8
20260905045855 64 215 0.0 0.0 0.00 0.00 0.00 76 1012.7
20260905045349 64 215 0.0 0.0 0.00 0.00 0.00 76 1012.8
20260905044843 64 215 0.0 0.0 0.00 0.00 0.00 76 1012.7
20260905044337 64 215 0.0 0.0 0.00 0.00 0.00 76 1012.7
20260905044100 64 215 0.0 0.0 0.00 0.00 0.00 77 1012.7
20260905043325 64 288 0.0 0.0 0.00 0.00 0.00 77 1012.7
20260905042819 64 288 0.0 0.0 0.00 0.00 0.00 76 1012.5
20260905042313 65 288 0.0 0.0 0.00 0.00 0.00 76 1012.5
20260905041806 65 288 0.0 0.0 0.00 0.00 0.00 76 1012.3
20260905041301 65 288 0.0 0.0 0.00 0.00 0.00 75 1012.5
20260905040755 65 288 0.0 0.0 0.00 0.00 0.00 75 1012.6
20260905040249 65 288 0.0 0.0 0.00 0.00 0.00 75 1012.6
20260905035743 65 288 0.0 0.0 0.00 0.00 0.00 75 1012.5
20260905035237 65 288 0.0 0.0 0.00 0.00 0.00 74 1012.3
20260905034731 66 288 0.0 0.0 0.00 0.00 0.00 73 1012.3
20260905034225 66 288 0.0 0.0 0.00 0.00 0.00 72 1012.3
20260905033720 66 288 0.0 0.0 0.00 0.00 0.00 72 1012.4
20260905033213 66 288 0.0 0.0 0.00 0.00 0.00 70 1012.2
20260905032707 67 288 0.0 0.0 0.00 0.00 0.00 69 1012.2
20260905032201 67 288 0.0 0.0 0.00 0.00 0.00 69 1012.1
20260905031655 67 288 0.0 0.0 0.00 0.00 0.00 70 1012.1
20260905031151 68 288 0.0 0.0 0.00 0.00 0.00 69 1012.0
20260905030643 68 288 0.0 0.0 0.00 0.00 0.00 67 1011.9
20260905030137 68 288 0.0 0.0 0.00 0.00 0.00 65 1012.0
20260905025631 68 288 0.0 0.0 0.00 0.00 0.00 66 1012.0
20260905025125 69 288 0.0 0.0 0.00 0.00 0.00 65 1011.8
20260905024620 69 207 0.0 0.0 0.00 0.00 0.00 64 1011.8
20260905024113 69 210 0.0 0.0 0.00 0.00 0.00 63 1011.9
20260905023607 69 210 0.0 0.0 0.00 0.00 0.00 62 1011.8
20260905023101 70 200 0.0 0.0 0.00 0.00 0.00 62 1012.0
20260905022823 70 188 0.0 0.0 0.00 0.00 0.00 61 1011.9
20260905022049 70 192 0.0 0.0 0.00 0.00 0.00 61 1012.1
20260905021543 71 221 0.0 0.0 0.00 0.00 0.00 61 1012.0
20260905021037 71 229 0.0 0.0 0.00 0.00 0.00 61 1012.0
20260905020531 72 227 0.0 0.0 0.00 0.00 0.00 60 1011.9
20260905020246 72 252 0.0 0.0 0.00 0.00 0.00 58 1011.9
20260905015519 73 230 0.0 0.0 0.00 0.00 0.00 56 1011.8
20260905015012 74 255 0.0 0.0 0.00 0.00 0.00 53 1011.8
20260905014506 75 240 0.0 0.0 0.00 0.00 0.00 51 1011.8
20260905014001 76 252 0.0 0.0 0.00 0.00 0.00 47 1011.7
20260905013455 76 210 0.0 1.0 0.00 0.00 0.00 43 1011.7
20260905013215 77 277 0.0 1.0 0.00 0.00 0.00 42 1011.7
20260905012443 77 225 0.0 1.0 0.00 0.00 0.00 42 1011.9
20260905012206 78 213 0.0 1.0 0.00 0.00 0.00 42 1012.0
20260905011431 78 251 0.0 3.0 0.00 0.00 0.00 42 1012.0
20260905010926 78 218 0.0 3.0 0.00 0.00 0.00 42 1011.8
20260905010419 78 238 0.0 3.0 0.00 0.00 0.00 42 1011.8
20260905005913 78 204 0.0 3.0 0.00 0.00 0.00 43 1011.9
20260905005407 78 243 0.0 4.0 0.00 0.00 0.00 43 1012.0
20260905004901 78 217 0.0 4.0 0.00 0.00 0.00 42 1011.9
20260905004848 78 164 0.0 4.0 0.00 0.00 0.00 41 1012.0
20260905003849 79 258 0.0 4.0 0.00 0.00 0.00 43 1011.9
20260905003343 79 188 0.0 4.0 0.00 0.00 0.00 39 1012.0
20260905003108 78 232 0.0 4.0 0.00 0.00 0.00 42 1012.0
20260905002332 78 159 0.0 4.0 0.00 0.00 0.00 40 1011.9
20260905001825 78 290 0.0 3.0 0.00 0.00 0.00 41 1012.0
20260905001319 79 238 0.0 5.0 0.00 0.00 0.00 37 1011.9
20260905000813 79 177 0.0 5.0 0.00 0.00 0.00 41 1012.0
20260905000307 79 238 1.0 8.0 0.00 0.00 0.00 38 1012.0
20260904235801 78 173 2.0 8.0 0.00 0.00 0.00 38 1012.0
20260904235255 79 209 2.0 8.0 0.00 0.00 0.00 39 1012.1
20260904234749 79 179 1.0 8.0 0.00 0.00 0.00 40 1012.1
20260904234243 79 242 1.0 8.0 0.00 0.00 0.00 40 1012.1
20260904233738 78 174 2.0 9.0 0.00 0.00 0.00 40 1012.1
20260904232726 78 198 3.0 9.0 0.00 0.00 0.00 38 1012.0
20260904232219 79 188 3.0 8.0 0.00 0.00 0.00 38 1012.1
20260904231931 79 144 3.0 10.0 0.00 0.00 0.00 41 1011.9
20260904231207 79 209 4.0 10.0 0.00 0.00 0.00 41 1011.9
20260904230919 79 188 3.0 11.0 0.00 0.00 0.00 41 1012.0
20260904230423 79 192 4.0 11.0 0.00 0.00 0.00 42 1012.0
20260904225649 79 221 4.0 11.0 0.00 0.00 0.00 43 1012.1
20260904225144 79 220 4.0 11.0 0.00 0.00 0.00 44 1012.2
20260904224637 79 240 3.0 9.0 0.00 0.00 0.00 45 1012.1
20260904224131 80 196 3.0 10.0 0.00 0.00 0.00 45 1012.0
20260904223625 80 215 4.0 11.0 0.00 0.00 0.00 45 1012.0
20260904223119 80 201 3.0 11.0 0.00 0.00 0.00 45 1012.1
20260904222613 80 191 3.0 11.0 0.00 0.00 0.00 44 1012.2
20260904222107 80 252 3.0 11.0 0.00 0.00 0.00 46 1012.3
20260904221601 80 217 3.0 11.0 0.00 0.00 0.00 46 1012.3
20260904221320 80 214 3.0 12.0 0.00 0.00 0.00 47 1012.2
20260904220805 80 238 3.0 12.0 0.00 0.00 0.00 47 1012.1
20260904220043 81 251 2.0 9.0 0.00 0.00 0.00 48 1012.3
20260904215803 81 218 1.0 9.0 0.00 0.00 0.00 48 1012.2
20260904215031 80 263 2.0 11.0 0.00 0.00 0.00 49 1012.1
20260904214525 80 165 4.0 12.0 0.00 0.00 0.00 49 1012.2
20260904214021 80 205 5.0 12.0 0.00 0.00 0.00 50 1012.2
20260904213513 80 155 6.0 11.0 0.00 0.00 0.00 50 1012.3
20260904213007 80 183 5.0 11.0 0.00 0.00 0.00 48 1012.4
20260904212501 81 205 3.0 11.0 0.00 0.00 0.00 48 1012.2
20260904211955 80 205 2.0 12.0 0.00 0.00 0.00 48 1012.4
20260904211928 80 190 5.0 12.0 0.00 0.00 0.00 50 1012.4
20260904210943 80 224 4.0 12.0 0.00 0.00 0.00 51 1012.3
20260904210659 80 188 4.0 11.0 0.00 0.00 0.00 49 1012.3
20260904210159 81 216 4.0 11.0 0.00 0.00 0.00 49 1012.3
20260904205426 80 219 3.0 10.0 0.00 0.00 0.00 50 1012.3
20260904204919 80 249 3.0 10.0 0.00 0.00 0.00 48 1012.4
20260904204413 80 208 4.0 10.0 0.00 0.00 0.00 48 1012.3
20260904204139 81 178 5.0 11.0 0.00 0.00 0.00 46 1012.5
20260904203401 81 236 4.0 11.0 0.00 0.00 0.00 46 1012.5
20260904203118 81 181 3.0 10.0 0.00 0.00 0.00 46 1012.4
20260904202349 81 219 4.0 10.0 0.00 0.00 0.00 45 1012.5
20260904201843 81 171 3.0 10.0 0.00 0.00 0.00 45 1012.5
20260904201337 82 201 2.0 8.0 0.00 0.00 0.00 44 1012.5
20260904200831 82 157 2.0 8.0 0.00 0.00 0.00 42 1012.5
20260904200326 82 153 0.0 8.0 0.00 0.00 0.00 42 1012.4
20260904195819 82 5 1.0 8.0 0.00 0.00 0.00 46 1012.4
20260904195313 81 186 0.0 7.0 0.00 0.00 0.00 42 1012.4
20260904194807 81 254 0.0 7.0 0.00 0.00 0.00 42 1012.5
20260904194301 81 248 0.0 1.0 0.00 0.00 0.00 40 1012.7
20260904193755 80 69 0.0 4.0 0.00 0.00 0.00 42 1012.6
20260904193249 80 27 0.0 4.0 0.00 0.00 0.00 39 1012.7
20260904192743 80 212 1.0 4.0 0.00 0.00 0.00 36 1012.8
20260904192502 80 281 1.0 7.0 0.00 0.00 0.00 38 1012.8
20260904191953 80 152 0.0 7.0 0.00 0.00 0.00 42 1012.9
20260904191226 79 139 2.0 8.0 0.00 0.00 0.00 44 1012.9
20260904190719 79 187 2.0 8.0 0.00 0.00 0.00 45 1013.1
20260904190443 79 242 0.0 6.0 0.00 0.00 0.00 47 1013.2
20260904185933 79 208 0.0 5.0 0.00 0.00 0.00 41 1013.3
20260904185426 78 9 1.0 5.0 0.00 0.00 0.00 42 1013.3
20260904184655 78 202 0.0 7.0 0.00 0.00 0.00 38 1013.3
20260904184151 78 178 0.0 7.0 0.00 0.00 0.00 42 1013.4
20260904183645 77 100 0.0 6.0 0.00 0.00 0.00 43 1013.3
20260904183405 77 144 0.0 2.0 0.00 0.00 0.00 46 1013.4
20260904182631 77 120 0.0 7.0 0.00 0.00 0.00 48 1013.3
20260904182125 76 0 0.0 7.0 0.00 0.00 0.00 49 1013.3
20260904181840 76 150 0.0 7.0 0.00 0.00 0.00 49 1013.6
20260904181113 75 196 0.0 7.0 0.00 0.00 0.00 52 1013.4
20260904180607 75 44 0.0 7.0 0.00 0.00 0.00 52 1013.4
20260904180101 75 120 1.0 7.0 0.00 0.00 0.00 51 1013.4
20260904175555 75 254 0.0 6.0 0.00 0.00 0.00 52 1013.6
20260904175050 75 117 0.0 2.0 0.00 0.00 0.00 55 1013.6
20260904174544 74 182 0.0 2.0 0.00 0.00 0.00 55 1013.7
20260904174037 74 171 0.0 6.0 0.00 0.00 0.00 56 1013.7
20260904173532 73 171 0.0 6.0 0.00 0.00 0.00 60 1013.7
20260904173025 73 237 0.0 6.0 0.00 0.00 0.00 61 1013.7
20260904172519 72 96 1.0 6.0 0.00 0.00 0.00 59 1013.7
20260904172013 72 223 1.0 5.0 0.00 0.00 0.00 61 1013.7
20260904171507 72 197 0.0 5.0 0.00 0.00 0.00 63 1013.8
20260904171446 72 150 0.0 5.0 0.00 0.00 0.00 64 1013.7
20260904170455 71 171 0.0 5.0 0.00 0.00 0.00 66 1013.7
20260904165952 71 317 0.0 5.0 0.00 0.00 0.00 67 1013.6
20260904165444 71 184 0.0 2.0 0.00 0.00 0.00 66 1013.4
20260904164937 71 198 0.0 2.0 0.00 0.00 0.00 66 1013.3
20260904164431 70 189 0.0 2.0 0.00 0.00 0.00 69 1013.1
20260904163925 70 225 0.0 2.0 0.00 0.00 0.00 71 1013.1
20260904163909 69 155 0.0 2.0 0.00 0.00 0.00 72 1013.1
20260904162913 69 251 0.0 2.0 0.00 0.00 0.00 73 1013.0
20260904162634 68 210 0.0 0.0 0.00 0.00 0.00 75 1013.0
20260904161901 67 144 0.0 0.0 0.00 0.00 0.00 76 1012.9
20260904161355 67 152 0.0 0.0 0.00 0.00 0.00 76 1012.8
20260904160849 66 220 0.0 0.0 0.00 0.00 0.00 77 1012.9
20260904160343 66 190 0.0 0.0 0.00 0.00 0.00 78 1012.9
20260904155838 65 111 0.0 0.0 0.00 0.00 0.00 81 1012.8
20260904155334 64 113 0.0 0.0 0.00 0.00 0.00 84 1012.7
20260904155053 63 244 0.0 0.0 0.00 0.00 0.00 84 1012.7
20260904154319 62 276 0.0 0.0 0.00 0.00 0.00 86 1012.8
20260904153813 62 273 0.0 0.0 0.00 0.00 0.00 87 1012.7
20260904153309 62 229 0.0 0.0 0.00 0.00 0.00 89 1012.8
20260904152802 61 170 0.0 0.0 0.00 0.00 0.00 90 1012.7
20260904152739 61 170 0.0 0.0 0.00 0.00 0.00 90 1012.7
20260904151750 60 170 0.0 0.0 0.00 0.00 0.00 91 1012.7
20260904151243 60 164 0.0 0.0 0.00 0.00 0.00 92 1012.8
20260904150737 60 101 0.0 0.0 0.00 0.00 0.00 93 1012.9
20260904150231 60 139 0.0 0.0 0.00 0.00 0.00 93 1012.9
20260904145948 60 140 0.0 0.0 0.00 0.00 0.00 93 1012.7
20260904145219 60 170 0.0 0.0 0.00 0.00 0.00 93 1012.8
20260904144713 59 184 0.0 0.0 0.00 0.00 0.00 94 1012.7
20260904144207 59 214 0.0 0.0 0.00 0.00 0.00 94 1012.7